Regional Weather Roundup
Issued by NWS

Home | Current Version | Previous Version | Graphics & Text | Print | Product List | Glossary On
Versions: 1 2 3 4 5 6 7 8 9 10 11 12 13 14 15 16 17 18 19 20 21 22 23 24 25 26 27 28 29 30 31 32 33 34 35 36 37 38 39 40 41 42 43 44 45 46 47 48 49 50
000
ASUS45 KPSR 310500
RWRAZ

PRELIMINARY ARIZONA REGIONAL HOURLY WEATHER ROUNDUP
NATIONAL WEATHER SERVICE PHOENIX AZ
1000 PM MST FRI JAN 30 2015

NOTE: FAIR INDICATES FEW OR NO CLOUDS BELOW 12,000 FEET WITH NO
SIGNIFICANT WEATHER AND/OR OBSTRUCTIONS TO VISIBILITY.

AZZ001>003-036-310600-
NORTHWEST ARIZONA

CITY           SKY/WX    TMP DP  RH WIND       PRES   REMARKS
KINGMAN        CLOUDY    46  44  93 NE7       29.86F
$$

AZZ004>008-015-016-018-310600-
NORTH CENTRAL ARIZONA

CITY           SKY/WX    TMP DP  RH WIND       PRES   REMARKS
GRAND CANYON   LGT RAIN  38  37  97 E3        29.90S FOG
PRESCOTT       CLOUDY    44  41  89 SW3       29.89S
FLAGSTAFF      NOT AVBL
PAYSON         CLOUDY    43  41  93 VRB3      29.93S FOG
$$

AZZ009>014-017-310600-
NORTHEAST ARIZONA

CITY           SKY/WX    TMP DP  RH WIND       PRES   REMARKS
WINSLOW        NOT AVBL
SAINT JOHNS    LGT RAIN  42  41  96 NW3       29.91S
WINDOW ROCK    LGT SNOW  34  31  88 CALM      29.95F FOG
SHOW LOW       LGT RAIN  37  34  87 S15       29.96S WCI  28
$$

AZZ023-310600-
GREATER PHOENIX AREA

CITY           SKY/WX    TMP DP  RH WIND       PRES   REMARKS
PHOENIX        CLOUDY    56  54  93 E8        29.85R
LUKE AFB       CLOUDY    57  55  93 E5        29.84F
DEER VALLEY    CLOUDY    54  53  97 CALM      29.85F
SCOTTSDALE     CLOUDY    56  52  86 CALM      29.87R
MESA-GATEWAY     N/A     54  54 100 CALM      29.87S
$$

AZZ027-028-310600-
SOUTHWEST MARICOPA COUNTY AND PINAL COUNTY

CITY           SKY/WX    TMP DP  RH WIND       PRES   REMARKS
CASA GRANDE    CLOUDY    55  52  88 CALM      29.86F
$$

AZZ503-504-507>509-310600-
SOUTHEAST ARIZONA

CITY           SKY/WX    TMP DP  RH WIND       PRES   REMARKS
TUCSON         CLOUDY    54  52  93 S3        29.89F
DAVIS-MONTHAN  DRIZZLE   54  54 100 S9        29.87F
NOGALES        LGT RAIN  50  47  89 CALM      29.90F
SIERRA VISTA   LGT RAIN  46  45  93 NE3       29.92S
SAFFORD        RAIN      47  46  97 N3        29.93S FOG
$$

AZZ020-021-025-026-031-310600-
SOUTHWEST ARIZONA

CITY           SKY/WX    TMP DP  RH WIND       PRES   REMARKS
YUMA           NOT AVBL
$$

CAZ031-033-041-043-047-048-061-310600-
SOUTHERN CALIFORNIA

CITY           SKY/WX    TMP DP  RH WIND       PRES   REMARKS
DOWNTOWN L.A.  PTCLDY    60  53  77 CALM      29.86S
L.A. AIRPORT   PTCLDY    60  56  86 S3        29.86S
SAN DIEGO      MOCLDY    61  55  81 S3        29.90S
BURBANK        PTCLDY    55  53  93 CALM      29.86S
ONTARIO        CLOUDY    58  49  72 W5        29.87R
RIVERSIDE      MOCLDY    55  53  93 CALM      29.87S
PALM SPRINGS   MOCLDY    59  52  77 CALM      29.86F
EL CENTRO NAS  CLOUDY    59  47  64 CALM      29.84S
IMPERIAL       CLOUDY    59  48  67 W6        29.83S
BLYTHE         CLOUDY    60  55  83 NW5       29.85S
$$

NVZ020-UTZ003-310600-
SOUTHERN NEVADA-UTAH

CITY           SKY/WX    TMP DP  RH WIND       PRES   REMARKS
LAS VEGAS      NOT AVBL
SALT LAKE CITY CLOUDY    41  36  82 W8        29.97F
$$

NMZ009-TXZ055-310600-
NEW MEXICO-WEST TEXAS

CITY           SKY/WX    TMP DP  RH WIND       PRES   REMARKS
ALBUQUERQUE    CLOUDY    37  31  78 NE8       30.05S WCI  31
EL PASO        LGT RAIN  42  40  92 NE5       30.03F
$$


........................KEY........................
SKY/WX - SKY CONDITION/WEATHER
TMP    - TEMPERATURE IN FAHRENHEIT
DP     - DEW POINT IN FAHRENHEIT
RH     - RELATIVE HUMIDITY IN PERCENT
WIND   - DIRECTION AND SPEED IN MILES PER HOUR (MPH)
VRB    - VARIABLE WIND DIRECTION
PRES   - MEAN SEA LEVEL PRESSURE IN INCHES OF MERCURY
         F - FALLING PRESSURE   R - RISING PRESSURE
         S - STEADY PRESSURE
VSB    - VISIBILITY IN MILES
HX     - HEAT INDEX IN FAHRENHEIT
WCI    - WIND CHILL INDEX IN FAHRENHEIT
TC     - TEMPERATURE IN CELSIUS WHICH IS ALSO KNOWN AS
         TEMPERATURE IN CENTIGRADE
AFB    - AIR FORCE BASE
         LUKE AFB IS LUKE AIR FORCE BASE
         DAVIS-MONTHAN IS DAVIS-MONTHAN AIR FORCE BASE
NAS    - NAVAL AIR STATION
         EL CENTRO NAS IS EL CENTRO NAVAL AIR STATION
N/A    - NOT AVAILABLE


USA.gov is the U.S. government's official web portal to all federal, state and local government web resources and services.